#timestamp,LO_Frequency,Hit,StdDev 
1697972415.6,286046992.8,N
1697972435.4,286046990.9,N
1697972455.3,286046991.3,N
1697972475.1,286046985.3,Y
1697972495.9,286046995.1,P
1697972515.7,286046997.1,N
1697972535.5,286046996.2,N
1697972555.4,286047011.9,Y
1697972575.2,286046998.7,P
1697972595.1,286046997.4,N
1697972596.0,286046997.4,N
1697972615.8,286046995.6,Y
1697972635.6,286046999.3,P
1697972655.5,286046999.4,N
1697972675.3,286046994.7,P
1697972695.1,286046992.9,Y
1697972715.9,286046996.0,P
1697972735.7,286046994.1,P
1697972755.6,286046992.2,P
1697972775.4,286046990.6,Y
1697972795.2,286046995.0,P
1697972815.1,286046993.9,P
1697972816.0,286046993.9,P
1697972835.8,286046993.6,Y
1697972855.7,286047001.0,P
1697972875.5,286046998.2,N
1697972895.3,286047002.6,N
1697972915.2,286047005.4,N
1697972935.9,286046982.5,Y
1697972955.7,286046981.6,P
1697972975.6,286046982.8,N
1697972995.4,286046977.0,N
1697973015.3,286046974.9,N
1697973035.1,286046978.5,N
1697973036.0,286046978.5,N
1697973055.8,286046972.0,Y
1697973075.7,286046980.5,P
1697973095.5,286046977.4,P
1697973115.3,286046981.7,P
1697973135.2,286046976.5,Y
1697973155.0,286046994.5,P
1697973155.9,286046994.5,N
1697973175.8,286046991.8,N
1697973195.6,286046992.9,N
1697973215.4,286046991.1,N
1697973235.3,286046988.2,N
1697973255.1,286046987.0,N
1697973275.8,286046987.7,N
1697973295.7,286046989.5,N
1697973315.5,286046987.9,Y
1697973335.4,286046998.3,P
1697973355.2,286046996.1,N
1697973375.0,286046998.1,N
1697973375.9,286046998.1,N
1697973395.8,286047003.8,N
1697973415.6,286047002.8,N
1697973435.5,286047000.5,N
1697973455.3,286047001.8,N
1697973475.1,286046999.9,N
1697973495.9,286046999.2,N
1697973515.7,286046998.5,N
1697973535.6,286046999.4,N
1697973555.4,286047001.6,N
1697973575.2,286047002.2,N
1697973595.1,286047003.3,N
1697973596.0,286047003.3,N
1697973615.8,286047003.7,N
1697973635.6,286047001.5,N
1697973655.5,286046997.2,N
1697973675.3,286046996.0,N
1697973695.2,286046996.2,N
1697973715.9,286046998.0,N
1697973735.7,286046994.1,N
1697973755.6,286046994.6,N
1697973775.4,286046994.2,N
1697973795.2,286046990.1,N
1697973845.1,286046990.9,E
1697973855.0,286046994.5,N
1697973855.9,286046994.5,P
1697973875.8,286046998.4,P
1697973895.6,286046999.1,N
1697973915.4,286046999.2,N
1697973935.3,286046995.8,N
1697973955.1,286046994.9,N
1697973975.9,286046997.6,N
1697973995.7,286046998.7,N
1697974015.5,286047002.8,N
1697974035.4,286047002.1,N
1697974055.2,286047001.7,N
1697974075.1,286047003.0,N
1697974076.0,286047003.0,N
1697974095.8,286047003.6,N
1697974115.6,286047007.4,N
1697974135.5,286047007.5,N
1697974155.3,286047005.7,N
1697974175.1,286047003.3,N
1697974195.9,286047005.4,N
1697974215.7,286047003.8,N
1697974235.6,286047003.5,N
1697974255.4,286047002.7,N
1697974275.2,286047002.7,N
1697974295.1,286047004.4,N
1697974296.0,286047004.4,N
1697974315.8,286047005.4,N
1697974335.6,286047003.3,N
1697974355.5,286047001.3,N
1697974375.3,286047007.2,N
1697974395.2,286047003.1,N
1697974415.9,286047005.5,N
1697974435.7,286047001.9,N
1697974455.6,286047004.0,N
1697974475.4,286047001.7,N
1697974495.2,286047002.6,N
1697974515.1,286047002.1,N
1697974516.0,286047002.1,N
1697974535.8,286046997.0,N
1697974555.7,286046998.1,N
1697974575.5,286047002.0,N
1697974595.3,286047009.1,Y
1697974615.2,286047003.0,P
1697974635.0,286046998.7,P
1697974635.9,286046998.7,N
1697974655.7,286046999.9,N
1697974675.6,286047002.5,N
1697974695.4,286046997.9,N
1697974715.3,286046996.3,N
1697974735.1,286046995.8,N
1697974736.0,286046995.8,N
1697974755.8,286046996.0,N
1697974775.7,286046996.7,N
1697974795.5,286046995.3,N
1697974815.3,286046997.3,N
1697974835.2,286046998.7,N
1697974855.0,286046998.5,N
1697974855.9,286046998.5,N
1697974875.8,286046996.7,N
1697974895.6,286046995.8,N
1697974915.4,286046992.1,Y
1697974935.3,286046998.8,P
1697974955.1,286047000.9,N
1697974975.9,286047002.7,N
1697974995.7,286047005.8,Y
1697975015.5,286047004.7,P
1697975035.4,286047003.3,N
1697975055.2,286047005.7,N
1697975075.0,286047003.8,N
1697975075.9,286047003.8,N
1697975095.8,286047000.3,N
1697975115.6,286047001.8,N
1697975135.5,286047006.5,Y
1697975155.3,286047001.3,P
1697975175.1,286047000.9,N
1697975195.9,286047001.0,N
1697975215.7,286046998.7,N
1697975235.5,286047000.9,N
1697975255.4,286046999.9,N
1697975275.2,286046997.2,N
1697975295.1,286046992.7,Y
1697975296.0,286046992.7,P
1697975315.8,286046988.5,P
1697975335.6,286046989.2,N
1697975355.5,286046991.3,N
1697975375.3,286046992.1,N
1697975395.2,286046993.9,N
1697975415.9,286046994.4,N
1697975435.7,286046993.3,N
1697975455.6,286046995.9,N
1697975475.4,286046990.6,N
1697975495.2,286046996.4,N
1697975515.1,286046993.6,N
1697975516.0,286046993.6,N
1697975535.8,286046992.3,N
1697975555.7,286046991.0,Y
1697975575.5,286047001.0,P
1697975595.3,286047002.6,N
1697975615.2,286047000.9,N
1697975635.0,286046999.3,N
1697975635.9,286046999.3,N
1697975655.8,286046994.6,N
1697975675.6,286046991.6,N
1697975695.4,286046989.7,N
1697975715.3,286046991.3,N
1697975735.1,286046995.8,N
1697975755.8,286046997.4,N
1697975775.7,286047000.4,N
1697975795.5,286047000.9,N
1697975815.4,286047002.2,N
1697975835.2,286047002.9,N
1697975855.0,286047006.3,N
1697975855.9,286047006.3,N
1697975875.8,286047012.4,N
1697975895.6,286047013.8,N
1697975915.4,286047013.4,N
1697975935.3,286047013.5,N
1697975955.1,286047008.9,N
1697975975.9,286047006.6,N
1697975995.7,286047007.4,N
